Flag for U.S.A. Weather past 2 weeks in Vallejo, California, U.S.A.

Now
50 °F

Clear.


Feels Like: 50 °F
Forecast: 51 / 79 °F
Wind: No wind

Location: Napa County Airport

Current Time: Apr 27, 2015 at 2:20:49 AM

Latest Report: Apr 27, 2015 at 1:54 AM


Visibility: 10 mi

Pressure: 30.01 "Hg

Humidity: 93%

Dew point: 48 °F

Location of VallejoLocation

Historic Weather in Vallejo — Graph

°F

Vallejo temperature yesterday

Maximum temperature yesterday: 73 °F (at 2:54 PM)
Minimum temperature yesterday: 41 °F (at 5:54 AM)
Average temperature yesterday: 57 °F

Past Weeks' High & Low Weather Summary

 TemperatureHumidityPressure
High78 °F (Apr 16, 1:54 PM)100% (Apr 12, 12:58 AM)30.33 "Hg (Apr 12, 12:58 AM)
Low36 °F (Apr 15, 1:54 AM)18% (Apr 16, 1:54 PM)29.78 "Hg (Apr 23, 6:54 PM)
Average56 °F72%29.96 "Hg
* Reported Apr 12 12:58 AM — Apr 27 12:54 AM, Vallejo, Weather by CustomWeather, © 2015

Note: Actual official high and low records may vary slightly from our data, if they occured in-between our weather recording intervals... More about our weather records

Advertising

Vallejo weather history for previous 24 hours

 ConditionsComfort  
Time TempWeatherWind HumidityBarometerVisibility
12:54 AM
Mon, Apr 27
51 °FClear.No wind92%30.03 "Hg10 mi
11:54 PM
Sun, Apr 26
51 °FClear.No wind92%30.03 "Hg10 mi
10:54 PM53 °FClear.5 mph89%30.04 "Hg10 mi
9:54 PM53 °FClear.6 mph89%30.04 "Hg10 mi
8:54 PM58 °FSunny.5 mph78%30.03 "Hg10 mi
7:54 PM60 °FSunny.5 mph75%30.03 "Hg10 mi
6:54 PM65 °FSunny.7 mph61%30.02 "Hg10 mi
5:54 PM68 °FSunny.15 mph51%30.03 "Hg10 mi
4:54 PM72 °FSunny.13 mph44%30.03 "Hg10 mi
3:54 PM72 °FSunny.14 mph48%30.04 "Hg10 mi
2:54 PM73 °FSunny.15 mph43%30.06 "Hg10 mi
1:54 PM72 °FSunny.6 mph37%30.07 "Hg10 mi
12:54 PM70 °FSunny.7 mph39%30.09 "Hg10 mi
11:54 AM65 °FSunny.7 mph42%30.11 "Hg10 mi
10:54 AM62 °FSunny.3 mph48%30.12 "Hg10 mi
9:54 AM58 °FSunny.3 mph54%30.11 "Hg10 mi
8:54 AM53 °FSunny.No wind66%30.10 "Hg10 mi
7:54 AM50 °FSunny.No wind80%30.09 "Hg10 mi
6:54 AM43 °FClear.3 mph93%30.07 "Hg10 mi
5:54 AM41 °FClear.No wind86%30.05 "Hg10 mi
4:54 AM44 °FClear.No wind85%30.04 "Hg10 mi
3:54 AM45 °FClear.3 mph82%30.03 "Hg10 mi
2:54 AM48 °FClear.3 mph77%30.02 "Hg10 mi
Weather by CustomWeather, © 2015

See weather overviewHow to use our weather pages